Вернуться в каталог

THORAD AGENA D DEB

АктивенLEO
NORAD 4135·DEBRIS·🇺🇸 United States

Запущен Sep 30, 1969 с Vandenberg Space Force Base

Loading…

Ближайшие Пролёты (ближайшие 24 часа)

TLE

СвежийSource: Space-Track

Эпоха: Sep 14, 2026, 15:07 UTC

1 04135U 69082DP  26257.62999612  .00000177  00000-0  10012-3 0  9996
2 04135  69.9824 327.6727 0044350 134.9160 225.5573 14.24291746944171

Отслеживайте THORAD AGENA D DEB в реальном времени с AllMySat

Download on the App Store